Location: Sungai Laei
(2.6000°N, 113.7167°E)
Time: 09:45:52
(UTC+00:00)

Ariane H10 - Pass Details

Date: 22 May 2022
Orbit: 376 x 30619 km, 7.2° (Epoch: 06 July)

Event Time Altitude Azimuth Distance (km) Brightness Sun altitude
Rises 18:43:12 0° 277° (W) 19,990 9.9 -48.4°
Enters shadow 19:19:01 10° 277° (W) 10,723 8.4 -40.8°
Exits shadow 19:45:48 45° 105° (ESE) 1,273 4.2 -35.0°
Drops below altitude 10° 19:48:07 10° 100° (E) 2,074 5.8 -34.5°
Sets 19:49:26 0° 100° (E) 2,678 6.5 -34.2°
